AirNav   ATP
 
 1470 users online  

2R9 Karnes County Airport
Kenedy, Texas, USA

GOING TO KENEDY?


FAA INFORMATION EFFECTIVE 06 DECEMBER 2018

Location

FAA Identifier: 2R9
Lat/Long: 28-49-29.9485N / 097-51-56.0460W
28-49.499142N / 097-51.934100W
28.8249857 / -97.8655683
(estimated)
Elevation: 288.7 ft. / 88.0 m (surveyed)
Variation: 05E (2010)
From city: 1 mile NW of KENEDY, TX
Time zone: UTC -6 (UTC -5 during Daylight Saving Time)
Zip code: 78119

Airport Operations

Airport use: Open to the public
Control tower: no
ARTCC: HOUSTON CENTER
FSS: SAN ANGELO FLIGHT SERVICE STATION
NOTAMs facility: SJT (NOTAM-D service available)
Attendance: MON-FRI DAYLIGHT HOURS
Wind indicator: lighted
Segmented circle: yes
Lights: MIRL RY 16/34 & TWY LGTS PRESET LOW INTST; TO INCR INTST ACTVT - CTAF.
Beacon: white-green (lighted land airport)
Operates sunset to sunrise.

Airport Communications

CTAF/UNICOM: 123.0
WX ASOS at NGT (18 nm SE): 353.675
  • APCH/DEP SERVICE PROVIDED BY HOUSTON ARTCC ON FREQS 134.6/322.5 (THREE RIVERS RCAG).

Nearby radio navigation aids

VOR radial/distance  VOR name  Freq  Var
THXr030/24.4THREE RIVERS VORTAC111.4008E
SSFr122/(39.9)STINSON VOR108.4009E

Airport Services

Fuel available: 100LL JET-A
Parking: tiedowns
Airframe service: MAJOR
Powerplant service: MAJOR

Runway Information

Runway 16/34

Dimensions: 3218 x 60 ft. / 981 x 18 m
Surface: asphalt, in fair condition
Weight bearing capacity: 
Single wheel: 11.0
Runway edge lights: medium intensity
Runway edge markings: MARKINGS FADED
RUNWAY 16  RUNWAY 34
Latitude: 28-49.760033N28-49.238250N
Longitude: 097-51.990067W097-51.878133W
Elevation: 288.7 ft.272.2 ft.
Gradient: 0.6%0.5% UP
Traffic pattern: rightleft
Runway heading: 164 magnetic, 169 true344 magnetic, 349 true
Markings: basic, in poor conditionbasic, in poor condition
Touchdown point: yes, no lightsyes, no lights
Obstructions: 34 ft. pole, 628 ft. from runway, 306 ft. left of centerline, 12:1 slope to clear
+6 FT DIRT ROAD 144 FT FM THLD.
31 ft. trees, 200 ft. from runway, 195 ft. left of centerline
+35 FT TREES 0-200 FT FM THLD AT 177-200 FT L, 5 FT FENCE 0-200 FT FM THLD & 105 FT-200 FT LEFT.

Airport Ownership and Management from official FAA records

Ownership: Publicly-owned
Owner: CITY OF KENEDY
303 W.MAIN
KENEDY, TX 78119
Phone 830-583-2230
Manager: RON HYDE
P.O. BOX 569
KENEDY, TX 78119
Phone (830) 583-5930

Airport Operational Statistics

Aircraft based on the field: 12
Single engine airplanes: 10
Multi engine airplanes: 2
    
Aircraft operations: avg 57/week *
67% local general aviation
33% transient general aviation
* for 12-month period ending 26 January 2017

Additional Remarks

DEER ON & INVOF ARPT (SEASONAL).
ACFT AIRFRAME & POWER PLANT REPAIRS ON CALL 830-299-2295.
SOUTH TWY CLSD.

Instrument Procedures

NOTE: All procedures below are presented as PDF files. If you need a reader for these files, you should download the free Adobe Reader.

NOT FOR NAVIGATION. Please procure official charts for flight.
FAA instrument procedures published for use from 6 December 2018 at 0901Z to 3 January 2019 at 0900Z.

 
IAPs - Instrument Approach Procedures
RNAV (GPS) RWY 16   download (167KB)
RNAV (GPS) RWY 34   download (161KB)
VOR/DME-A   download (139KB)
NOTE: Special Take-Off Minimums/Departure Procedures apply   download (154KB)

Other nearby airports with instrument procedures:

KNGT - Goliad Naval Outlying Field (18 nm SE)
KBEA - Beeville Municipal Airport (28 nm S)
TX2 - Chase Field Industrial Airport (30 nm S)
8T6 - Live Oak County Airport (31 nm SW)
KPEZ - Pleasanton Municipal Airport (35 nm W)
 
Loc | Ops | Rwys | IFR | FBO | Links
Com | Nav | Svcs | Stats | Notes


 
Area around 2R9 (Karnes County Airport)
 
Road maps at: MapQuest Bing Google
 
Aerial photo
WARNING: Photo may not be current or correct
Aerial photo of 2R9 (Karnes County Airport)
Photo by Glenn Maleske
Taken late January 2010

Do you have a better or more recent aerial photo of Karnes County Airport that you would like to share? If so, please send us your photo.

 
Sectional chart

 
Airport distance calculator
Flying to Karnes County Airport? Find the distance to fly.

From to 2R9

Sunrise and sunset
Times for 19-Dec-2018
 Local
(UTC-6)
 Zulu
(UTC)
Morning civil twilight06:5412:54
Sunrise07:2013:20
Sunset17:3723:37
Evening civil twilight18:0300:03

Current date and time
Zulu (UTC)  19-Dec-2018 16:55:22
Local (UTC-6)  19-Dec-2018 10:55:22
 
METAR
KBEA 
28nm S 
191635Z AUTO 00000KT 10SM OVC010 18/15 A2989 RMK AO2 T01760151
KPEZ 
35nm W 
191635Z AUTO 23004KT 10SM OVC012 16/13 A2991 RMK AO2 T01550129
KSSF 
44nm NW 
191636Z 22006KT 10SM FEW009 SCT014 BKN021 17/13 A2987 RMK AO2 T01670133 $
KRND 
47nm NW 
191639Z 21005KT 5SM BR BKN009 OVC014 15/15 A2988 RMK CIG 007 RWY33R SLP116
KT20 
47nm NE 
191635Z AUTO 00000KT 5SM BR OVC003 15/15 A2989 RMK AO2 T01490149
KVCT 
49nm E 
191641Z 29006KT 8SM OVC005 16/14 A2988 RMK AO2 CIG 003V008 T01560144
KSKF 
49nm NW 
191623Z 18004KT 10SM SCT009 BKN017 BKN050 16/15 A2987 RMK AO2A SLP112 $
TAF
KSSF 
44nm NW 
191542Z 1916/2012 29003KT 4SM BR OVC004 FM191700 21005KT P6SM OVC005 FM192000 28007KT P6SM SCT035 FM200100 34007KT P6SM FEW035 FEW100
KRND 
47nm NW 
191525Z 1915/2016 VRB06KT 3200 BR OVC003 QNH2987INS TEMPO 1915/1917 1600 BR BECMG 1916/1917 VRB06KT 6000 BR BKN008 QNH2984INS BECMG 1917/1918 VRB06KT 9000 -SHRA BKN016 QNH2979INS BECMG 1920/1921 VRB06KT 9999 NSW SCT030 BKN050 QNH2974INS BECMG 2005/2006 33008KT 9999 FEW120 QNH2989INS BECMG 2012/2013 33012G18KT 9999 SKC 530104 QNH2994INS BECMG 2015/2016 33025G35KT 9999 SKC 530005 QNH3004INS TX18/1922Z TN10/2010Z
KVCT 
49nm E 
191628Z 1916/2012 32004KT 6SM BR BKN010 TEMPO 1916/1917 3SM BR OVC002 FM191800 VRB04KT P6SM FEW015 SCT070 FM192100 31009KT P6SM SKC
KSKF 
49nm NW 
191000Z 1910/2016 VRB04KT 0800 FG OVC002 QNH2987INS TEMPO 1911/1914 0400 FG OVC001 BECMG 1914/1915 VRB04KT 2400 BR VCSH OVC003 QNH2988INS BECMG 1915/1916 VRB05KT 4800 BR VCSH BKN005 BKN080 QNH2988INS BECMG 1916/1917 24005KT 9999 NSW BKN015 BKN080 QNH2985INS BECMG 1917/1918 25008KT 9999 SCT020 QNH2977INS BECMG 1920/1921 28010KT 9999 SCT040 QNH2977INS BECMG 2004/2005 34009KT 9999 SKC QNH2983INS BECMG 2009/2010 34015G25KT 9999 SKC 510044 QNH2993INS TX20/1922Z TN11/2010Z
NOTAMs
Click for the latest NOTAMs
NOTAMs are issued by the DoD/FAA and will open in a separate window not controlled by AirNav.

 

 
 

FBO, Fuel Providers, and Aircraft Ground Support

  
 Business Name 
 
 Contact 
 
 Services / Description 
 
Fuel Prices
 
Comments
  
Stetson Aviation, Inc. 830-583-9884
830-583-5930
[web site]
[email]
Aviation fuel, Aircraft ground handling, Aircraft parking (ramp or tiedown), Hangar leasing / sales, GPU / Power cart, Passenger terminal and lounge, ...

More info about Stetson Aviation, Inc.
Avfuel
100LL Jet A
SS $4.35 $3.69 
 Updated 18-Dec-2018
 
   2 read write
SS=Self service
Update Fuel Prices
 

Where to Eat: Catering, Restaurants, Food shops

  
 Business Name 
 
 Contact 
 
 Services / Description 
 
Distance
 
Comments
  
Barth's Restaurant 830-583-2468
no information available

If you are affiliated with Barth's Restaurant and would like to show here your services, contact info, web link, logo, and more, click here
0.2 miles  
   write
 

Would you like to see your business listed on this page?

 If your business provides an interesting product or service to pilots, flight crews, aircraft, or users of the Karnes County Airport, you should consider listing it here.  To start the listing process, click on the button below
 
Add a business
 

Other Pages about Karnes County Airport

Update a link
 
Copyright © AirNav, LLC. All rights reserved. Privacy Policy  Contact